This is the latest recevied weather packets stored in our database for station/object SV2BZQ-2. If no packets are shown the sender has not sent any weather packets the latest 1 day(s).
| Time | Temp. | Humidity | Pressure | Rain* | Wind** | Luminosity | Snow |
|---|---|---|---|---|---|---|---|
| 1778043351 | 12.22° C | 89% | 1014.3 hPa | 0 mm | 0.45 m/s, 312° | 204 W/m² | - |
| 1778043232 | 12.22° C | 89% | 1014.3 hPa | 0 mm | 0.89 m/s, 308° | 216 W/m² | - |
| 1778043112 | 12.22° C | 89% | 1014.2 hPa | 0 mm | 0.89 m/s, 321° | 229 W/m² | - |
| 1778042990 | 11.67° C | 89% | 1014.3 hPa | 0 mm | 0.89 m/s, 323° | 223 W/m² | - |
| 1778042881 | 11.67° C | 89% | 1014.3 hPa | 0 mm | 0.89 m/s, 319° | 223 W/m² | - |
| 1778042788 | 11.67° C | 89% | 1014.2 hPa | 0 mm | 0.89 m/s, 324° | 220 W/m² | - |
| 1778042715 | 11.67° C | 89% | 1014.3 hPa | 0 mm | 0.89 m/s, 327° | 221 W/m² | - |
| 1778042622 | 11.67° C | 89% | 1014.2 hPa | 0 mm | 0.89 m/s, 298° | 221 W/m² | - |
| 1778042532 | 11.67° C | 89% | 1014.2 hPa | 0 mm | 0.89 m/s, 345° | 206 W/m² | - |
| 1778042366 | 11.67° C | 89% | 1014.2 hPa | 0 mm | 0.89 m/s, 302° | 193 W/m² | - |
| 1778042240 | 11.67° C | 89% | 1014.2 hPa | 0 mm | 0.89 m/s, 326° | 195 W/m² | - |
| 1778042105 | 11.11° C | 88% | 1014.1 hPa | 0 mm | 0.89 m/s, 333° | 200 W/m² | - |
| 1778041989 | 11.11° C | 88% | 1014.1 hPa | 0 mm | 0.89 m/s, 306° | 193 W/m² | - |
| 1778041890 | 11.11° C | 88% | 1014.1 hPa | 0 mm | 0.89 m/s, 288° | 186 W/m² | - |
| 1778041706 | 11.11° C | 88% | 1014.1 hPa | 0 mm | 0.89 m/s, 311° | 176 W/m² | - |
| 1778041618 | 11.11° C | 88% | 1014.1 hPa | 0 mm | 0.89 m/s, 286° | 169 W/m² | - |
| 1778041539 | 11.11° C | 88% | 1014.1 hPa | 0 mm | 0.89 m/s, 314° | 158 W/m² | - |
| 1778041419 | 11.11° C | 88% | 1014.1 hPa | 0 mm | 0.89 m/s, 317° | 151 W/m² | - |
| 1778041353 | 11.11° C | 88% | 1014.1 hPa | 0 mm | 0.89 m/s, 287° | 146 W/m² | - |
| 1778041250 | 11.11° C | 88% | 1014.1 hPa | 0 mm | 0.89 m/s, 262° | 127 W/m² | - |
| 1778041138 | 11.11° C | 88% | 1014 hPa | 0 mm | 0.89 m/s, 299° | 128 W/m² | - |
| 1778041054 | 11.11° C | 88% | 1014 hPa | 0 mm | 0.89 m/s, 271° | 105 W/m² | - |
| 1778040955 | 11.11° C | 88% | 1014.1 hPa | 0 mm | 0.89 m/s, 315° | 60 W/m² | - |
| 1778040883 | 11.11° C | 88% | 1013.9 hPa | 0 mm | 0.89 m/s, 306° | 49 W/m² | - |
| 1778040785 | 11.11° C | 87% | 1013.9 hPa | 0 mm | 0.89 m/s, 314° | 46 W/m² | - |
* Rain latest hour (hover to see other rain measurements)
** Current wind speed in m/s (hover to see current wind gust speed)